Вернуться в каталог

SINOD-D 1

АктивенЛюбительское радиоVLEO
NORAD 40974·PAYLOAD·🇺🇸 United States

Запущен Oct 8, 2015 с Vandenberg Space Force Base

Loading…

Ближайшие Пролёты (ближайшие 24 часа)

TLE

СвежийSource: Space-Track

Эпоха: Sep 14, 2026, 08:20 UTC

1 40974U 15058L   26257.34759195  .00012041  00000-0  54292-3 0  9991
2 40974  64.7568 244.9182 0086060   9.1248 351.1415 15.18051312129140

Отслеживайте SINOD-D 1 в реальном времени с AllMySat

Download on the App Store